This demonstration page uses our WeatherBlox Daily Observations layout. Learn more.

Left ArrowRight Arrow

44.89941, -97.11507

Hourly Observations for June 16, 2018

Temp ( °F °C ) Dew Point ( °F °C ) Humidity (%) Winds ( mph kmh ) Pressure ( in mb ) Visibility ( mi km ) Precip ( " mm )
12:53 am 00:53 Clear 71 21.7 69 20.6 94 94 N 5 7 29.67 1005 10 16 0.00 0.00
1:53 am 01:53 Clear 71 21.7 69 20.6 94 94 Calm 29.67 1005 10 16 0.00 0.00
2:53 am 02:53 Clear 70 21.1 70 21.1 100 100 NNE 3 6 29.66 1004 9 14 0.00 0.00
3:53 am 03:53 Mostly Cloudy 72 22.2 71 21.7 97 97 NNE 9 15 29.67 1005 8 13 0.00 0.00
4:53 am 04:53 Clear 70 21.1 70 21.1 100 100 ENE 7 11 29.67 1005 8 13 0.00 0.00
5:35 am 05:35 Partly Cloudy with Nearby Thunderstorms 71 21.7 70 21.1 96 96 ENE 8 13 29.68 1005 10 16 0.00 0.00
5:53 am 05:53 Partly Cloudy with Thunderstorms 70 21.1 69 20.6 97 97 NNE 6 9 29.68 1005 7 11 0.00 0.03
6:07 am 06:07 Partly Cloudy with Nearby Thunderstorms 70 21.1 70 21.1 100 100 Calm 29.68 1005 9 14 0.00 0.03
6:25 am 06:25 Partly Cloudy with Light Rain 70 21.1 70 21.1 100 100 Calm 29.68 1005 8 13 0.00 0.03
6:53 am 06:53 Mostly Sunny 70 21.1 70 21.1 100 100 WNW 3 6 29.66 1004 7 11 0.00 0.03
7:53 am 07:53 Partly Cloudy 74 23.3 65 18.3 74 74 ESE 8 13 29.57 1002 10 16 0.02 0.51
8:53 am 08:53 Sunny 73 22.8 69 20.6 87 87 S 12 19 29.67 1005 10 16 0.01 0.25
9:53 am 09:53 Sunny 73 22.8 70 21.1 90 90 ENE 10 17 29.65 1004 10 16 0.00 0.00
10:53 am 10:53 Sunny 77 25 70 21.1 79 79 ENE 7 11 29.68 1005 10 16 0.00 0.00
11:53 am 11:53 Sunny 80 26.7 69 20.6 69 69 VRB 5 7 29.67 1005 10 16 0.00 0.00
12:53 pm 12:53 Sunny 82 27.8 69 20.6 65 65 S 6 9 29.67 1005 10 16 0.00 0.00
1:53 pm 13:53 Partly Cloudy 84 28.9 72 22.2 67 67 SSE 12 19 29.64 1004 10 16 0.00 0.00
2:53 pm 14:53 Partly Cloudy 87 30.6 72 22.2 61 61 SE 14 22 29.64 1004 10 16 0.00 0.00
3:53 pm 15:53 Sunny 88 31.1 72 22.2 59 59 SE 9 15 29.63 1003 10 16 0.00 0.00
4:53 pm 16:53 Mostly Sunny 90 32.2 70 21.1 52 52 SSE 12 19 29.61 1003 10 16 0.00 0.00
5:53 pm 17:53 Mostly Cloudy 88 31.1 72 22.2 59 59 S 9 15 29.63 1003 10 16 0.00 0.00
6:53 pm 18:53 Partly Cloudy with Nearby Thunderstorms 88 31.1 71 21.7 57 57 SE 12 19 29.59 1002 10 16 0.00 0.00
7:12 pm 19:12 Mostly Sunny 85 29.4 71 21.7 63 63 SSE 16 26 29.53 1000 10 16 0.00 0.00
7:53 pm 19:53 Sunny 80 26.7 66 18.9 62 62 ESE 3 6 29.63 1003 10 16 0.00 0.00
8:53 pm 20:53 Mostly Cloudy 79 26.1 68 20 69 69 SSE 3 6 29.60 1002 10 16 0.00 0.00
9:53 pm 21:53 Mostly Cloudy 77 25 70 21.1 79 79 N 5 7 29.63 1004 10 16 0.00 0.00
10:01 pm 22:01 Mostly Cloudy with Nearby Thunderstorms 77 25 70 21.1 79 79 N 8 13 29.59 1002 10 16 0.00 0.00
10:18 pm 22:18 Mostly Cloudy 77 25 73 22.8 88 88 N 6 9 29.62 1003 10 16 0.00 0.00
10:53 pm 22:53 Mostly Clear 78 25.6 72 22.2 82 82 W 9 15 29.67 1005 10 16 0.00 0.00
11:53 pm 23:53 Clear 76 24.4 68 20 77 77 WNW 10 17 29.70 1006 10 16 0.00 0.00

Powered by AerisWeather